This is the latest recevied weather packets stored in our database for station/object YO6LRV-3. If no packets are shown the sender has not sent any weather packets the latest 10 day(s).
| Time | Temp. | Humidity | Pressure | Rain* | Wind** | Luminosity | Snow |
|---|---|---|---|---|---|---|---|
| 1777311215 | 13.89° C | 33% | 1017.3 hPa | - | - | - | - |
| 1777310448 | 13.89° C | 33% | 1017.3 hPa | - | - | - | - |
| 1777309548 | 13.89° C | 33% | 1017.3 hPa | - | - | - | - |
| 1777308648 | 14.44° C | 33% | 1017.3 hPa | - | - | - | - |
| 1777307748 | 14.44° C | 33% | 1017.3 hPa | - | - | - | - |
| 1777306841 | 15° C | 33% | 1017.3 hPa | - | - | - | - |
| 1777305948 | 15.56° C | 33% | 1017.4 hPa | - | - | - | - |
| 1777305047 | 16.11° C | 32% | 1017.4 hPa | - | - | - | - |
| 1777304147 | 16.11° C | 32% | 1017.6 hPa | - | - | - | - |
| 1777303247 | 16.67° C | 31% | 1017.7 hPa | - | - | - | - |
| 1777302347 | 16.67° C | 32% | 1017.7 hPa | - | - | - | - |
| 1777301447 | 17.22° C | 31% | 1017.8 hPa | - | - | - | - |
| 1777300547 | 17.22° C | 31% | 1018.1 hPa | - | - | - | - |
| 1777299647 | 17.78° C | 29% | 1018.2 hPa | - | - | - | - |
| 1777298747 | 17.78° C | 30% | 1018.4 hPa | - | - | - | - |
| 1777297847 | 18.33° C | 29% | 1018.5 hPa | - | - | - | - |
| 1777296946 | 18.89° C | 27% | 1018.7 hPa | - | - | - | - |
| 1777296039 | 19.44° C | 27% | 1018.8 hPa | - | - | - | - |
| 1777295149 | 19.44° C | 28% | 1019.1 hPa | - | - | - | - |
| 1777294248 | 19.44° C | 28% | 1019.3 hPa | - | - | - | - |
| 1777293342 | 19.44° C | 27% | 1019.4 hPa | - | - | - | - |
| 1777292442 | 19.44° C | 27% | 1019.6 hPa | - | - | - | - |
| 1777291541 | 19.44° C | 28% | 1019.9 hPa | - | - | - | - |
| 1777290642 | 18.89° C | 29% | 1020 hPa | - | - | - | - |
| 1777289748 | 18.89° C | 30% | 1020.2 hPa | - | - | - | - |
* Rain since midnight (hover to see other rain measurements)
** Current wind speed in m/s (hover to see current wind gust speed)